FW7233 Weather Reports


Display with metric or nautical units.
time (UTC)temp
F
wind
direction
speed
MPH
gust
MPH
rain 1hr
in
rain 24hr
in
rain mn
in
humidity
%
barometer
mb
20260504231555 50 138 0.0 0.0 0.00 0.00 0.00 95 1012.1
20260504230555 51 138 0.0 0.0 0.00 0.00 0.00 94 1012.3
20260504225555 51 138 0.0 0.0 0.00 0.00 0.00 94 1012.3
20260504224555 51 138 0.0 0.0 0.00 0.00 0.00 93 1012.2
20260504222555 51 140 0.0 0.0 0.00 0.00 0.00 92 1012.3
20260504221555 51 140 0.0 0.0 0.00 0.00 0.00 91 1012.5
20260504220554 52 140 0.0 0.0 0.00 0.00 0.00 90 1013.0
20260504214556 53 140 0.0 0.0 0.00 0.00 0.00 88 1012.6
20260504213555 54 140 0.0 0.0 0.00 0.00 0.00 87 1012.6
20260504212557 54 144 0.0 0.0 0.00 0.00 0.00 86 1012.5
20260504211554 55 146 0.0 0.0 0.00 0.00 0.00 86 1012.7
20260504210555 55 135 0.0 0.0 0.00 0.00 0.00 85 1012.5
20260504205555 54 138 0.0 0.0 0.00 0.00 0.00 85 1012.7
20260504204555 54 135 0.0 0.0 0.00 0.00 0.00 85 1012.6
20260504203554 55 135 0.0 1.0 0.00 0.00 0.00 84 1012.4
20260504202556 55 140 0.0 1.0 0.00 0.00 0.00 84 1012.4
20260504200557 56 140 0.0 0.0 0.00 0.00 0.00 80 1012.2
20260504195555 57 128 0.0 1.0 0.00 0.00 0.00 79 1012.3
20260504194558 56 135 0.0 0.0 0.00 0.00 0.00 80 1012.4
20260504193555 56 141 0.0 0.0 0.00 0.00 0.00 80 1012.1
20260504192555 57 149 0.0 0.0 0.00 0.00 0.00 79 1012.1
20260504190554 58 144 0.0 0.0 0.00 0.00 0.00 77 1012.0
20260504185555 59 145 0.0 0.0 0.00 0.00 0.00 75 1012.0
20260504184556 60 135 0.0 0.0 0.00 0.00 0.00 73 1012.1
20260504183556 61 138 0.0 0.0 0.00 0.00 0.00 69 1011.7
20260504181555 63 143 0.0 0.0 0.00 0.00 0.00 63 1012.0
20260504180555 64 144 0.0 0.0 0.00 0.00 0.00 62 1011.6
20260504174555 67 146 0.0 0.0 0.00 0.00 0.00 56 1011.6
20260504171554 72 137 0.0 2.0 0.00 0.00 0.00 45 1011.8
20260504170555 74 147 0.0 3.0 0.00 0.00 0.00 43 1011.6
20260504150555 81 181 4.0 7.0 0.00 0.00 0.00 37 1011.9
20260504130555 78 178 3.0 7.0 0.00 0.00 0.00 40 1012.8
20260504110543 77 206 4.0 8.0 0.00 0.00 0.00 42 1013.6
20260504100533 75 192 1.0 9.0 0.00 0.00 0.00 47 1014.0
20260504081534 72 90 2.0 8.0 0.00 0.00 0.00 45 1014.3
20260504080533 71 193 4.0 9.0 0.00 0.00 0.00 44 1014.4
20260504050543 58 189 1.0 9.0 0.00 0.00 0.00 55 1014.1
20260504045533 59 159 3.0 6.0 0.00 0.00 0.00 54 1013.9
20260504044531 58 145 0.0 6.0 0.00 0.00 0.00 57 1014.1
20260504043530 57 123 0.0 6.0 0.00 0.00 0.00 58 1014.2
20260504042531 56 140 1.0 3.0 0.00 0.00 0.00 60 1014.1
20260504041531 55 164 2.0 3.0 0.00 0.00 0.00 59 1013.9
20260504040531 55 125 0.0 3.0 0.00 0.00 0.00 60 1014.0
20260504035531 55 136 1.0 4.0 0.00 0.00 0.00 60 1013.6
20260504033532 54 132 0.0 3.0 0.00 0.00 0.00 60 1014.0
20260504032531 54 131 0.0 3.0 0.00 0.00 0.00 60 1013.9
20260504031533 54 140 1.0 6.0 0.00 0.00 0.00 59 1013.8
20260504030530 54 132 0.0 4.0 0.00 0.00 0.00 60 1013.9
20260504024533 55 162 1.0 4.0 0.00 0.00 0.00 58 1013.8
20260504023531 55 138 1.0 4.0 0.00 0.00 0.00 57 1013.9
20260504022532 56 143 1.0 4.0 0.00 0.00 0.00 56 1013.8
20260504021533 56 143 1.0 6.0 0.00 0.00 0.00 55 1013.9
20260504020533 56 153 0.0 4.0 0.00 0.00 0.00 56 1013.9
20260504015531 56 147 1.0 6.0 0.00 0.00 0.00 56 1013.8
20260504014532 56 141 1.0 3.0 0.00 0.00 0.00 56 1014.0
20260504013533 56 146 0.0 6.0 0.00 0.00 0.00 55 1014.0
20260504012531 57 167 2.0 6.0 0.00 0.00 0.00 54 1013.7
20260504004531 58 128 1.0 7.0 0.00 0.00 0.00 55 1014.1
20260504003531 58 153 2.0 4.0 0.00 0.00 0.00 54 1014.0
20260504002531 58 107 3.0 4.0 0.00 0.00 0.00 54 1014.1
20260504000530 59 156 2.0 4.0 0.00 0.00 0.00 55 1014.0
20260503235531 59 137 0.0 4.0 0.00 0.00 0.00 56 1014.5
20260503234532 60 149 2.0 6.0 0.00 0.00 0.00 54 1014.5
20260503233531 60 127 0.0 6.0 0.00 0.00 0.00 55 1014.3
20260503232531 60 169 0.0 6.0 0.00 0.00 0.00 55 1014.6